This is the latest recevied weather packets stored in our database for station/object CE4ERM-13. If no packets are shown the sender has not sent any weather packets the latest 10 day(s).
| Time | Temp. | Humidity | Pressure | Rain* | Wind** | Luminosity | Snow |
|---|---|---|---|---|---|---|---|
| 1778083766 | 21.11° C | 59% | 1023.5 hPa | - | - | - | - |
| 1778083350 | 20.56° C | 48% | 1018.6 hPa | - | - | - | - |
| 1778077762 | 24.44° C | 42% | 1018.1 hPa | - | - | - | - |
| 1778076562 | 23.89° C | 44% | 1017.1 hPa | - | - | - | - |
| 1778074606 | 18.89° C | 54% | 1018.3 hPa | - | - | - | - |
| 1778073407 | 18.33° C | 57% | 1019.7 hPa | - | - | - | - |
| 1778069806 | 17.22° C | 47% | 1021.5 hPa | - | - | - | - |
| 1778069357 | 19.44° C | 48% | 1018.1 hPa | - | - | - | - |
| 1778068605 | 17.78° C | 47% | 1012.4 hPa | - | - | - | - |
| 1778068157 | 18.33° C | 47% | 1016.3 hPa | - | - | - | - |
| 1778068005 | 17.78° C | 47% | 1020.1 hPa | - | - | - | - |
| 1778067405 | 17.78° C | 47% | 1016 hPa | - | - | - | - |
| 1778066957 | 18.33° C | 47% | 1018.9 hPa | - | - | - | - |
| 1778066805 | 17.78° C | 47% | 1018.9 hPa | - | - | - | - |
| 1778066357 | 18.33° C | 47% | 1019.5 hPa | - | - | - | - |
| 1778063956 | 18.89° C | 47% | 1018.1 hPa | - | - | - | - |
| 1778063802 | 17.22° C | 48% | 1019.4 hPa | - | - | - | - |
| 1778063355 | 18.89° C | 46% | 1017.7 hPa | - | - | - | - |
| 1778061555 | 18.89° C | 47% | 1018.6 hPa | - | - | - | - |
| 1778060955 | 18.89° C | 47% | 1017.2 hPa | - | - | - | - |
| 1778060803 | 18.33° C | 43% | 1016.5 hPa | - | - | - | - |
| 1778060355 | 19.44° C | 47% | 1016.7 hPa | - | - | - | - |
| 1778060203 | 18.89° C | 42% | 1018.4 hPa | - | - | - | - |
| 1778059754 | 19.44° C | 47% | 1017.5 hPa | - | - | - | - |
| 1778058553 | 19.44° C | 50% | 1016.7 hPa | - | - | - | - |
* Rain since midnight (hover to see other rain measurements)
** Current wind speed in m/s (hover to see current wind gust speed)